| time (UTC) | temp C | wind direction | speed KPH | gust KPH | rain 1hr cm | rain 24hr cm | rain mn cm | humidity % | barometer mb |
| 20260505153126 | 13 | 0 | 1.6 | 9.7 | 0.00 | 0.00 | 0.00 | 42 | 1010.2 |
| 20260505152403 | 13 | 347 | 4.8 | 14.5 | 0.00 | 0.00 | 0.00 | 42 | 1009.9 |
| 20260505152121 | 13 | 344 | 8.0 | 14.5 | 0.00 | 0.00 | 0.00 | 44 | 1010.0 |
| 20260505151354 | 13 | 333 | 8.0 | 14.5 | 0.00 | 0.00 | 0.00 | 45 | 1009.8 |
| 20260505150854 | 12 | 313 | 6.4 | 14.5 | 0.00 | 0.00 | 0.00 | 45 | 1009.8 |
| 20260505150353 | 12 | 317 | 4.8 | 11.3 | 0.00 | 0.00 | 0.00 | 44 | 1009.8 |
| 20260505140331 | 12 | 276 | 8.0 | 14.5 | 0.00 | 0.00 | 0.00 | 48 | 1009.4 |
| 20260505130240 | 9 | 321 | 1.6 | 4.8 | 0.00 | 0.00 | 0.00 | 54 | 1007.6 |
| 20260505124732 | 7 | 321 | 0.0 | 1.6 | 0.00 | 0.00 | 0.00 | 54 | 1006.5 |
| 20260505124231 | 7 | 321 | 0.0 | 1.6 | 0.00 | 0.00 | 0.00 | 53 | 1006.4 |
| 20260505123718 | 7 | 321 | 0.0 | 3.2 | 0.00 | 0.00 | 0.00 | 52 | 1006.4 |
| 20260505123206 | 7 | 321 | 1.6 | 6.4 | 0.00 | 0.00 | 0.00 | 52 | 1006.5 |
| 20260505122704 | 8 | 321 | 3.2 | 6.4 | 0.00 | 0.00 | 0.00 | 52 | 1006.5 |
| 20260505122204 | 8 | 321 | 1.6 | 6.4 | 0.00 | 0.00 | 0.00 | 51 | 1006.7 |
| 20260505121704 | 8 | 321 | 1.6 | 6.4 | 0.00 | 0.00 | 0.00 | 51 | 1006.9 |
| 20260505121203 | 8 | 321 | 0.0 | 3.2 | 0.00 | 0.00 | 0.00 | 50 | 1006.9 |
| 20260505120703 | 8 | 321 | 0.0 | 3.2 | 0.00 | 0.00 | 0.00 | 50 | 1007.0 |
| 20260505120209 | 8 | 321 | 1.6 | 4.8 | 0.00 | 0.00 | 0.00 | 49 | 1007.0 |
| 20260505115913 | 9 | 321 | 1.6 | 4.8 | 0.00 | 0.00 | 0.00 | 49 | 1007.0 |
| 20260505115144 | 9 | 321 | 0.0 | 3.2 | 0.00 | 0.00 | 0.00 | 48 | 1006.9 |
| 20260505114643 | 9 | 321 | 0.0 | 0.0 | 0.00 | 0.00 | 0.00 | 48 | 1007.0 |
| 20260505114140 | 9 | 321 | 0.0 | 3.2 | 0.00 | 0.00 | 0.00 | 47 | 1007.2 |
| 20260505113631 | 9 | 321 | 0.0 | 3.2 | 0.00 | 0.00 | 0.00 | 47 | 1007.5 |
| 20260505113133 | 10 | 321 | 0.0 | 1.6 | 0.00 | 0.00 | 0.00 | 47 | 1007.7 |
| 20260505112632 | 10 | 321 | 0.0 | 1.6 | 0.00 | 0.00 | 0.00 | 46 | 1007.8 |
| 20260505112127 | 10 | 321 | 0.0 | 1.6 | 0.00 | 0.00 | 0.00 | 46 | 1008.0 |
| 20260505111626 | 10 | 321 | 0.0 | 3.2 | 0.00 | 0.00 | 0.00 | 46 | 1008.0 |
| 20260505111345 | 10 | 321 | 0.0 | 3.2 | 0.00 | 0.00 | 0.00 | 46 | 1008.1 |
| 20260505110627 | 10 | 321 | 0.0 | 1.6 | 0.00 | 0.00 | 0.00 | 45 | 1008.2 |
| 20260505110119 | 10 | 321 | 0.0 | 1.6 | 0.00 | 0.00 | 0.00 | 45 | 1008.2 |
| 20260505101603 | 11 | 321 | 0.0 | 1.6 | 0.00 | 0.00 | 0.00 | 42 | 1008.6 |
| 20260505101104 | 11 | 321 | 0.0 | 3.2 | 0.00 | 0.00 | 0.00 | 42 | 1008.6 |
| 20260505100603 | 11 | 321 | 0.0 | 4.8 | 0.00 | 0.00 | 0.00 | 41 | 1008.6 |
| 20260505095604 | 11 | 321 | 0.0 | 8.0 | 0.00 | 0.00 | 0.00 | 40 | 1008.7 |
| 20260505095059 | 11 | 317 | 0.0 | 6.4 | 0.00 | 0.00 | 0.00 | 39 | 1008.8 |
| 20260505094558 | 11 | 317 | 1.6 | 8.0 | 0.00 | 0.00 | 0.00 | 39 | 1008.8 |
| 20260505094053 | 11 | 317 | 3.2 | 9.7 | 0.00 | 0.00 | 0.00 | 39 | 1009.1 |
| 20260505093812 | 11 | 318 | 4.8 | 14.5 | 0.00 | 0.00 | 0.00 | 39 | 1008.7 |
| 20260505093044 | 11 | 319 | 4.8 | 14.5 | 0.00 | 0.00 | 0.00 | 38 | 1008.8 |
| 20260505092543 | 11 | 304 | 4.8 | 11.3 | 0.00 | 0.00 | 0.00 | 38 | 1008.9 |
| 20260505092033 | 11 | 298 | 4.8 | 9.7 | 0.00 | 0.00 | 0.00 | 37 | 1009.1 |
| 20260505091532 | 11 | 298 | 1.6 | 9.7 | 0.00 | 0.00 | 0.00 | 38 | 1008.9 |
| 20260505091032 | 12 | 298 | 1.6 | 6.4 | 0.00 | 0.00 | 0.00 | 38 | 1009.1 |
| 20260505090531 | 12 | 298 | 1.6 | 6.4 | 0.00 | 0.00 | 0.00 | 38 | 1009.2 |
| 20260505090031 | 12 | 298 | 3.2 | 11.3 | 0.00 | 0.00 | 0.00 | 38 | 1009.4 |
| 20260505085531 | 12 | 298 | 6.4 | 12.9 | 0.00 | 0.00 | 0.00 | 37 | 1009.4 |
| 20260505085259 | 12 | 293 | 6.4 | 14.5 | 0.00 | 0.00 | 0.00 | 37 | 1009.5 |
| 20260505084532 | 12 | 290 | 6.4 | 14.5 | 0.00 | 0.00 | 0.00 | 37 | 1009.8 |
| 20260505084032 | 12 | 286 | 4.8 | 14.5 | 0.00 | 0.00 | 0.00 | 38 | 1009.9 |
| 20260505083802 | 12 | 254 | 3.2 | 8.0 | 0.00 | 0.00 | 0.00 | 38 | 1010.0 |
| 20260505083026 | 12 | 254 | 3.2 | 9.7 | 0.00 | 0.00 | 0.00 | 38 | 1010.2 |
| 20260505082518 | 12 | 253 | 3.2 | 9.7 | 0.00 | 0.00 | 0.00 | 37 | 1010.2 |
| 20260505082015 | 12 | 250 | 4.8 | 12.9 | 0.00 | 0.00 | 0.00 | 37 | 1010.3 |
| 20260505081513 | 12 | 252 | 4.8 | 12.9 | 0.00 | 0.00 | 0.00 | 37 | 1010.3 |
| 20260505081011 | 12 | 254 | 3.2 | 9.7 | 0.00 | 0.00 | 0.00 | 37 | 1010.0 |
| 20260505080511 | 12 | 254 | 1.6 | 6.4 | 0.00 | 0.00 | 0.00 | 37 | 1009.9 |
| 20260505080006 | 12 | 254 | 1.6 | 8.0 | 0.00 | 0.00 | 0.00 | 36 | 1010.2 |
| 20260505075723 | 12 | 254 | 1.6 | 8.0 | 0.00 | 0.00 | 0.00 | 36 | 1009.8 |
| 20260505075004 | 12 | 254 | 1.6 | 6.4 | 0.00 | 0.00 | 0.00 | 36 | 1009.9 |
| 20260505074503 | 12 | 254 | 0.0 | 6.4 | 0.00 | 0.00 | 0.00 | 35 | 1009.8 |
| 20260505074221 | 12 | 254 | 0.0 | 6.4 | 0.00 | 0.00 | 0.00 | 36 | 1009.9 |
| 20260505073451 | 12 | 254 | 0.0 | 6.4 | 0.00 | 0.00 | 0.00 | 35 | 1010.2 |
| 20260505072949 | 12 | 254 | 0.0 | 1.6 | 0.00 | 0.00 | 0.00 | 35 | 1010.3 |
| 20260505072443 | 13 | 254 | 0.0 | 0.0 | 0.00 | 0.00 | 0.00 | 34 | 1010.4 |
| 20260505071931 | 13 | 254 | 1.6 | 8.0 | 0.00 | 0.00 | 0.00 | 33 | 1010.4 |
| 20260505071425 | 13 | 254 | 1.6 | 8.0 | 0.00 | 0.00 | 0.00 | 33 | 1010.6 |
| 20260505070919 | 13 | 254 | 1.6 | 6.4 | 0.00 | 0.00 | 0.00 | 32 | 1010.8 |
| 20260505070415 | 13 | 254 | 4.8 | 12.9 | 0.00 | 0.00 | 0.00 | 32 | 1011.0 |
| 20260505065909 | 14 | 254 | 6.4 | 14.5 | 0.00 | 0.00 | 0.00 | 32 | 1011.1 |
| 20260505065408 | 14 | 258 | 6.4 | 19.3 | 0.00 | 0.00 | 0.00 | 31 | 1011.2 |
| 20260505064903 | 14 | 302 | 9.7 | 19.3 | 0.00 | 0.00 | 0.00 | 31 | 1011.4 |
| 20260505064403 | 14 | 282 | 11.3 | 20.9 | 0.00 | 0.00 | 0.00 | 31 | 1011.2 |
| 20260505063903 | 14 | 293 | 12.9 | 24.1 | 0.00 | 0.00 | 0.00 | 30 | 1011.4 |
| 20260505063403 | 15 | 291 | 14.5 | 29.0 | 0.00 | 0.00 | 0.00 | 30 | 1011.4 |
| 20260505063126 | 15 | 272 | 14.5 | 29.0 | 0.00 | 0.00 | 0.00 | 30 | 1011.4 |
| 20260505062403 | 15 | 280 | 12.9 | 25.7 | 0.00 | 0.00 | 0.00 | 30 | 1011.2 |
| 20260505062128 | 15 | 292 | 12.9 | 25.7 | 0.00 | 0.00 | 0.00 | 30 | 1011.5 |
| 20260505061403 | 15 | 307 | 12.9 | 24.1 | 0.00 | 0.00 | 0.00 | 30 | 1011.5 |
| 20260505060903 | 15 | 304 | 11.3 | 24.1 | 0.00 | 0.00 | 0.00 | 30 | 1011.5 |
| 20260505060351 | 15 | 315 | 11.3 | 20.9 | 0.00 | 0.00 | 0.00 | 31 | 1011.6 |
| 20260505060202 | 15 | 285 | 12.9 | 20.9 | 0.00 | 0.00 | 0.00 | 31 | 1011.6 |
| 20260505060158 | 15 | 281 | 11.3 | 17.7 | 0.00 | 0.00 | 0.00 | 33 | 1011.7 |
| 20260505060153 | 15 | 284 | 11.3 | 17.7 | 0.00 | 0.00 | 0.00 | 33 | 1011.7 |
| 20260505055932 | 15 | 281 | 11.3 | 17.7 | 0.00 | 0.00 | 0.00 | 33 | 1011.5 |
| 20260505053818 | 15 | 283 | 9.7 | 17.7 | 0.00 | 0.00 | 0.00 | 33 | 1011.5 |
| 20260505053542 | 15 | 271 | 9.7 | 17.7 | 0.00 | 0.00 | 0.00 | 33 | 1011.4 |
| 20260505052818 | 15 | 274 | 9.7 | 17.7 | 0.00 | 0.00 | 0.00 | 34 | 1011.1 |
| 20260505052319 | 15 | 269 | 8.0 | 17.7 | 0.00 | 0.00 | 0.00 | 34 | 1011.1 |
| 20260505051818 | 15 | 252 | 6.4 | 12.9 | 0.00 | 0.00 | 0.00 | 35 | 1011.1 |
| 20260505051316 | 15 | 252 | 6.4 | 12.9 | 0.00 | 0.00 | 0.00 | 35 | 1011.1 |
| 20260505050817 | 15 | 246 | 4.8 | 11.3 | 0.00 | 0.00 | 0.00 | 35 | 1010.9 |
| 20260505050536 | 15 | 258 | 4.8 | 12.9 | 0.00 | 0.00 | 0.00 | 35 | 1011.0 |
| 20260505041303 | 15 | 281 | 3.2 | 11.3 | 0.00 | 0.00 | 0.00 | 34 | 1011.2 |
| 20260505041026 | 15 | 282 | 1.6 | 4.8 | 0.00 | 0.00 | 0.00 | 33 | 1011.0 |
| 20260505040302 | 15 | 282 | 0.0 | 8.0 | 0.00 | 0.00 | 0.00 | 34 | 1011.1 |
| 20260505035803 | 15 | 282 | 1.6 | 8.0 | 0.00 | 0.00 | 0.00 | 33 | 1011.4 |
| 20260505035304 | 15 | 285 | 0.0 | 3.2 | 0.00 | 0.00 | 0.00 | 33 | 1011.6 |
| 20260505035026 | 15 | 285 | 0.0 | 3.2 | 0.00 | 0.00 | 0.00 | 32 | 1011.7 |
| 20260505034303 | 15 | 285 | 0.0 | 3.2 | 0.00 | 0.00 | 0.00 | 32 | 1012.0 |
| 20260505034034 | 15 | 285 | 0.0 | 3.2 | 0.00 | 0.00 | 0.00 | 31 | 1012.0 |
| 20260505033306 | 16 | 285 | 1.6 | 4.8 | 0.00 | 0.00 | 0.00 | 31 | 1012.1 |
| 20260505032759 | 16 | 285 | 1.6 | 6.4 | 0.00 | 0.00 | 0.00 | 30 | 1012.1 |
| 20260505032250 | 16 | 285 | 1.6 | 6.4 | 0.00 | 0.00 | 0.00 | 30 | 1012.1 |
| 20260505031748 | 16 | 285 | 3.2 | 8.0 | 0.00 | 0.00 | 0.00 | 29 | 1012.3 |
| 20260505031232 | 16 | 285 | 3.2 | 11.3 | 0.00 | 0.00 | 0.00 | 29 | 1012.2 |
| 20260505030952 | 16 | 285 | 4.8 | 12.9 | 0.00 | 0.00 | 0.00 | 28 | 1012.2 |
| 20260505030220 | 16 | 284 | 6.4 | 14.5 | 0.00 | 0.00 | 0.00 | 28 | 1012.3 |
| 20260505025719 | 16 | 281 | 4.8 | 14.5 | 0.00 | 0.00 | 0.00 | 28 | 1012.2 |
| 20260505025204 | 16 | 284 | 4.8 | 12.9 | 0.00 | 0.00 | 0.00 | 27 | 1012.3 |
| 20260505024702 | 16 | 283 | 8.0 | 14.5 | 0.00 | 0.00 | 0.00 | 27 | 1012.3 |
| 20260505024200 | 17 | 280 | 9.7 | 17.7 | 0.00 | 0.00 | 0.00 | 26 | 1012.3 |
| 20260505023650 | 17 | 296 | 9.7 | 17.7 | 0.00 | 0.00 | 0.00 | 26 | 1012.3 |
| 20260505023148 | 17 | 283 | 8.0 | 14.5 | 0.00 | 0.00 | 0.00 | 26 | 1012.2 |
| 20260505022648 | 17 | 281 | 8.0 | 16.1 | 0.00 | 0.00 | 0.00 | 26 | 1012.3 |
| 20260505022147 | 17 | 283 | 8.0 | 16.1 | 0.00 | 0.00 | 0.00 | 26 | 1012.5 |
| 20260505021646 | 17 | 267 | 6.4 | 16.1 | 0.00 | 0.00 | 0.00 | 24 | 1012.5 |
| 20260505021145 | 17 | 281 | 9.7 | 22.5 | 0.00 | 0.00 | 0.00 | 24 | 1012.7 |
| 20260505020902 | 17 | 268 | 6.4 | 22.5 | 0.00 | 0.00 | 0.00 | 24 | 1012.6 |
| 20260505020139 | 17 | 284 | 3.2 | 14.5 | 0.00 | 0.00 | 0.00 | 24 | 1012.7 |
| 20260505015856 | 17 | 286 | 6.4 | 14.5 | 0.00 | 0.00 | 0.00 | 23 | 1012.8 |
| 20260505015401 | 17 | 296 | 9.7 | 16.1 | 0.00 | 0.00 | 0.00 | 23 | 1012.9 |
| 20260505014634 | 18 | 278 | 11.3 | 30.6 | 0.00 | 0.00 | 0.00 | 23 | 1012.8 |
| 20260505014353 | 18 | 265 | 11.3 | 30.6 | 0.00 | 0.00 | 0.00 | 22 | 1012.8 |
| 20260505013632 | 18 | 281 | 9.7 | 19.3 | 0.00 | 0.00 | 0.00 | 22 | 1012.8 |
| 20260505013132 | 18 | 293 | 9.7 | 20.9 | 0.00 | 0.00 | 0.00 | 21 | 1012.8 |
| 20260505012630 | 18 | 302 | 9.7 | 22.5 | 0.00 | 0.00 | 0.00 | 21 | 1012.8 |
| 20260505012121 | 18 | 237 | 9.7 | 22.5 | 0.00 | 0.00 | 0.00 | 21 | 1012.8 |
| 20260505011622 | 18 | 277 | 9.7 | 20.9 | 0.00 | 0.00 | 0.00 | 20 | 1013.1 |
| 20260505011350 | 18 | 279 | 11.3 | 20.9 | 0.00 | 0.00 | 0.00 | 20 | 1013.2 |
| 20260505010628 | 18 | 281 | 12.9 | 20.9 | 0.00 | 0.00 | 0.00 | 19 | 1013.1 |
| 20260505010127 | 19 | 290 | 12.9 | 20.9 | 0.00 | 0.00 | 0.00 | 19 | 1013.4 |
| 20260505005627 | 19 | 298 | 14.5 | 29.0 | 0.00 | 0.00 | 0.00 | 19 | 1013.3 |
| 20260505005125 | 19 | 292 | 12.9 | 29.0 | 0.00 | 0.00 | 0.00 | 19 | 1013.6 |
| 20260505004623 | 20 | 290 | 9.7 | 20.9 | 0.00 | 0.00 | 0.00 | 19 | 1013.7 |
| 20260505004113 | 20 | 292 | 11.3 | 29.0 | 0.00 | 0.00 | 0.00 | 19 | 1013.7 |
| 20260505004104 | 20 | 275 | 12.9 | 29.0 | 0.00 | 0.00 | 0.00 | 18 | 1013.9 |
| 20260505003118 | 20 | 287 | 12.9 | 24.1 | 0.00 | 0.00 | 0.00 | 18 | 1014.2 |
| 20260505002615 | 20 | 253 | 12.9 | 24.1 | 0.00 | 0.00 | 0.00 | 18 | 1014.2 |
| 20260505002112 | 20 | 250 | 11.3 | 22.5 | 0.00 | 0.00 | 0.00 | 18 | 1014.2 |
| 20260505001834 | 20 | 278 | 11.3 | 35.4 | 0.00 | 0.00 | 0.00 | 18 | 1014.2 |
| 20260505001329 | 20 | 241 | 14.5 | 35.4 | 0.00 | 0.00 | 0.00 | 18 | 1014.0 |
| 20260505000824 | 20 | 235 | 14.5 | 35.4 | 0.00 | 0.00 | 0.00 | 18 | 1014.3 |
| 20260505000104 | 20 | 245 | 14.5 | 29.0 | 0.00 | 0.00 | 0.00 | 17 | 1014.3 |
| 20260504235602 | 21 | 252 | 12.9 | 22.5 | 0.00 | 0.00 | 0.00 | 18 | 1014.6 |
| 20260504235103 | 21 | 266 | 11.3 | 22.5 | 0.00 | 0.00 | 0.00 | 18 | 1014.8 |
| 20260504234603 | 21 | 250 | 9.7 | 22.5 | 0.00 | 0.00 | 0.00 | 18 | 1014.6 |
| 20260504234103 | 21 | 236 | 9.7 | 20.9 | 0.00 | 0.00 | 0.00 | 17 | 1014.6 |
| 20260504233603 | 21 | 277 | 11.3 | 25.7 | 0.00 | 0.00 | 0.00 | 19 | 1014.9 |
| 20260504233103 | 21 | 277 | 12.9 | 25.7 | 0.00 | 0.00 | 0.00 | 18 | 1015.0 |
| 20260504232603 | 21 | 221 | 14.5 | 25.7 | 0.00 | 0.00 | 0.00 | 19 | 1015.0 |
| 20260504232103 | 21 | 301 | 14.5 | 30.6 | 0.00 | 0.00 | 0.00 | 18 | 1015.4 |
| 20260504231603 | 22 | 278 | 12.9 | 30.6 | 0.00 | 0.00 | 0.00 | 17 | 1016.0 |
| 20260504231102 | 22 | 306 | 12.9 | 29.0 | 0.00 | 0.00 | 0.00 | 19 | 1016.0 |
| 20260504230603 | 22 | 245 | 14.5 | 32.2 | 0.00 | 0.00 | 0.00 | 19 | 1015.9 |
| 20260504230319 | 21 | 268 | 17.7 | 37.0 | 0.00 | 0.00 | 0.00 | 19 | 1015.6 |
| 20260504225603 | 21 | 236 | 16.1 | 37.0 | 0.00 | 0.00 | 0.00 | 18 | 1015.5 |
| 20260504225102 | 21 | 205 | 11.3 | 24.1 | 0.00 | 0.00 | 0.00 | 19 | 1015.7 |
| 20260504224820 | 21 | 242 | 12.9 | 24.1 | 0.00 | 0.00 | 0.00 | 19 | 1015.6 |
| 20260504224055 | 21 | 272 | 16.1 | 25.7 | 0.00 | 0.00 | 0.00 | 19 | 1015.6 |
| 20260504223555 | 21 | 312 | 12.9 | 30.6 | 0.00 | 0.00 | 0.00 | 19 | 1015.4 |
| 20260504223056 | 21 | 313 | 12.9 | 30.6 | 0.00 | 0.00 | 0.00 | 19 | 1015.4 |
| 20260504222552 | 21 | 280 | 12.9 | 29.0 | 0.00 | 0.00 | 0.00 | 19 | 1015.6 |
| 20260504222053 | 20 | 266 | 14.5 | 29.0 | 0.00 | 0.00 | 0.00 | 19 | 1015.3 |
| 20260504221553 | 20 | 288 | 14.5 | 29.0 | 0.00 | 0.00 | 0.00 | 20 | 1015.3 |
| 20260504221053 | 20 | 281 | 14.5 | 25.7 | 0.00 | 0.00 | 0.00 | 19 | 1015.4 |
| 20260504220553 | 21 | 304 | 14.5 | 30.6 | 0.00 | 0.00 | 0.00 | 19 | 1015.6 |
| 20260504220259 | 21 | 288 | 11.3 | 29.0 | 0.00 | 0.00 | 0.00 | 18 | 1016.0 |
| 20260504220252 | 21 | 298 | 14.5 | 30.6 | 0.00 | 0.00 | 0.00 | 18 | 1015.9 |
| 20260504215052 | 21 | 246 | 11.3 | 25.7 | 0.00 | 0.00 | 0.00 | 18 | 1016.1 |
| 20260504214551 | 21 | 302 | 11.3 | 24.1 | 0.00 | 0.00 | 0.00 | 17 | 1016.3 |
| 20260504214046 | 21 | 301 | 12.9 | 29.0 | 0.00 | 0.00 | 0.00 | 18 | 1016.3 |
| 20260504213537 | 21 | 239 | 14.5 | 29.0 | 0.00 | 0.00 | 0.00 | 18 | 1016.5 |
| 20260504213036 | 21 | 317 | 14.5 | 32.2 | 0.00 | 0.00 | 0.00 | 17 | 1016.6 |
| 20260504213023 | 21 | 316 | 16.1 | 32.2 | 0.00 | 0.00 | 0.00 | 17 | 1016.3 |
| 20260504212035 | 21 | 263 | 14.5 | 30.6 | 0.00 | 0.00 | 0.00 | 17 | 1017.0 |
| 20260504211536 | 21 | 295 | 14.5 | 25.7 | 0.00 | 0.00 | 0.00 | 16 | 1016.8 |
| 20260504211031 | 21 | 275 | 16.1 | 35.4 | 0.00 | 0.00 | 0.00 | 16 | 1016.7 |
| 20260504210531 | 21 | 258 | 16.1 | 35.4 | 0.00 | 0.00 | 0.00 | 16 | 1016.8 |
| 20260504210033 | 21 | 273 | 14.5 | 32.2 | 0.00 | 0.00 | 0.00 | 15 | 1016.5 |
| 20260504205754 | 21 | 244 | 14.5 | 33.8 | 0.00 | 0.00 | 0.00 | 15 | 1016.6 |
| 20260504205033 | 21 | 267 | 17.7 | 33.8 | 0.00 | 0.00 | 0.00 | 16 | 1016.8 |
| 20260504204532 | 21 | 245 | 17.7 | 35.4 | 0.00 | 0.00 | 0.00 | 15 | 1017.1 |
| 20260504204259 | 21 | 251 | 17.7 | 35.4 | 0.00 | 0.00 | 0.00 | 15 | 1017.1 |
| 20260504203756 | 21 | 255 | 16.1 | 30.6 | 0.00 | 0.00 | 0.00 | 14 | 1017.0 |
| 20260504203028 | 21 | 311 | 16.1 | 32.2 | 0.00 | 0.00 | 0.00 | 14 | 1017.1 |
| 20260504202526 | 21 | 296 | 14.5 | 32.2 | 0.00 | 0.00 | 0.00 | 14 | 1017.2 |
| 20260504202027 | 21 | 279 | 12.9 | 29.0 | 0.00 | 0.00 | 0.00 | 15 | 1017.7 |
| 20260504201526 | 21 | 276 | 11.3 | 29.0 | 0.00 | 0.00 | 0.00 | 14 | 1017.8 |
| 20260504201026 | 22 | 246 | 11.3 | 25.7 | 0.00 | 0.00 | 0.00 | 15 | 1017.8 |
| 20260504200526 | 21 | 266 | 11.3 | 25.7 | 0.00 | 0.00 | 0.00 | 17 | 1017.7 |
| 20260504200244 | 22 | 271 | 11.3 | 20.9 | 0.00 | 0.00 | 0.00 | 17 | 1017.8 |
| 20260504195523 | 22 | 229 | 12.9 | 29.0 | 0.00 | 0.00 | 0.00 | 15 | 1017.8 |
| 20260504195017 | 21 | 275 | 16.1 | 29.0 | 0.00 | 0.00 | 0.00 | 17 | 1017.8 |
| 20260504194514 | 21 | 267 | 16.1 | 32.2 | 0.00 | 0.00 | 0.00 | 17 | 1017.6 |
| 20260504194012 | 21 | 265 | 12.9 | 32.2 | 0.00 | 0.00 | 0.00 | 17 | 1017.7 |
| 20260504193733 | 21 | 247 | 14.5 | 25.7 | 0.00 | 0.00 | 0.00 | 19 | 1017.7 |
| 20260504193012 | 21 | 236 | 12.9 | 25.7 | 0.00 | 0.00 | 0.00 | 19 | 1017.7 |
| 20260504192509 | 21 | 244 | 12.9 | 24.1 | 0.00 | 0.00 | 0.00 | 21 | 1017.8 |
| 20260504192010 | 21 | 207 | 12.9 | 29.0 | 0.00 | 0.00 | 0.00 | 21 | 1017.6 |
| 20260504191506 | 21 | 236 | 14.5 | 29.0 | 0.00 | 0.00 | 0.00 | 23 | 1017.3 |
| 20260504191006 | 20 | 263 | 14.5 | 29.0 | 0.00 | 0.00 | 0.00 | 21 | 1017.2 |
| 20260504190726 | 21 | 309 | 12.9 | 25.7 | 0.00 | 0.00 | 0.00 | 21 | 1017.8 |
| 20260504190004 | 21 | 246 | 11.3 | 25.7 | 0.00 | 0.00 | 0.00 | 20 | 1017.8 |
| 20260504185503 | 21 | 246 | 9.7 | 22.5 | 0.00 | 0.00 | 0.00 | 21 | 1017.7 |
| 20260504185002 | 21 | 223 | 11.3 | 22.5 | 0.00 | 0.00 | 0.00 | 20 | 1017.8 |
| 20260504184502 | 21 | 226 | 11.3 | 22.5 | 0.00 | 0.00 | 0.00 | 20 | 1017.9 |
| 20260504184225 | 21 | 261 | 11.3 | 30.6 | 0.00 | 0.00 | 0.00 | 22 | 1017.9 |
| 20260504183500 | 21 | 244 | 9.7 | 30.6 | 0.00 | 0.00 | 0.00 | 21 | 1017.6 |
| 20260504183000 | 20 | 285 | 9.7 | 17.7 | 0.00 | 0.00 | 0.00 | 21 | 1017.6 |
| 20260504182500 | 21 | 295 | 9.7 | 19.3 | 0.00 | 0.00 | 0.00 | 21 | 1017.6 |
| 20260504181959 | 21 | 306 | 11.3 | 19.3 | 0.00 | 0.00 | 0.00 | 22 | 1017.7 |
| 20260504181458 | 21 | 269 | 11.3 | 19.3 | 0.00 | 0.00 | 0.00 | 22 | 1017.7 |
| 20260504180956 | 20 | 271 | 11.3 | 20.9 | 0.00 | 0.00 | 0.00 | 21 | 1017.7 |
| 20260504180458 | 20 | 224 | 12.9 | 46.7 | 0.00 | 0.00 | 0.00 | 22 | 1017.7 |
| 20260504175956 | 20 | 324 | 11.3 | 46.7 | 0.00 | 0.00 | 0.00 | 21 | 1017.6 |
| 20260504175456 | 20 | 172 | 8.0 | 14.5 | 0.00 | 0.00 | 0.00 | 25 | 1017.9 |
| 20260504174948 | 20 | 238 | 9.7 | 19.3 | 0.00 | 0.00 | 0.00 | 26 | 1017.9 |
| 20260504174448 | 20 | 173 | 9.7 | 19.3 | 0.00 | 0.00 | 0.00 | 25 | 1017.9 |
| 20260504173945 | 20 | 148 | 9.7 | 17.7 | 0.00 | 0.00 | 0.00 | 29 | 1018.0 |
| 20260504173446 | 20 | 199 | 9.7 | 17.7 | 0.00 | 0.00 | 0.00 | 29 | 1018.3 |
| 20260504172946 | 20 | 184 | 9.7 | 17.7 | 0.00 | 0.00 | 0.00 | 30 | 1017.8 |
| 20260504172446 | 19 | 174 | 11.3 | 20.9 | 0.00 | 0.00 | 0.00 | 31 | 1017.6 |
| 20260504171945 | 19 | 183 | 9.7 | 20.9 | 0.00 | 0.00 | 0.00 | 32 | 1017.3 |
| 20260504171444 | 18 | 157 | 9.7 | 19.3 | 0.00 | 0.00 | 0.00 | 32 | 1017.4 |
| 20260504171201 | 18 | 155 | 9.7 | 22.5 | 0.00 | 0.00 | 0.00 | 33 | 1017.3 |
| 20260504170929 | 18 | 131 | 6.4 | 20.9 | 0.00 | 0.00 | 0.00 | 33 | 1017.3 |